Location: Alfortville
(48.8058°N, 2.4204°E)
Time: 02:50:05
(UTC+00:00)

Envisat - Pass Details

Date: 02 December 2022
Orbit: 763 x 765 km, 98.2° (Epoch: 28 January)

Event Time Altitude Azimuth Distance (km) Brightness Sun altitude
Rises 03:17:01 0° 22° (NNE) 3,245 6.6 -39.6°
Reaches altitude 10° 03:19:37 10° 33° (NNE) 2,314 5.9 -39.2°
Enters shadow 03:21:03 17° 44° (NE) 1,865 5.4 -38.9°
